Tracking 17925 objects as of 21-January-2017
HD Live streaming from Space Station
objects crossing your sky now

COSMOS 2251 DEB

Track COSMOS 2251 DEB now!
10-day predictions


NORAD ID: 33899
Int'l Code: 1993-036DC
Perigee: 690.6 km
Apogee: 803.3 km
Inclination: 74.1 °
Period: 99.6 minutes
Semi major axis: 7117 km
RCS: 0.032 m2 (small)
Launch date: June 16, 1993
Source: Commonwealth of Independent States (former USSR) (CIS)
Launch site: PLESETSK MISSILE AND SPACE COMPLEX (PKMTR)

Note: This is SATELLITE DEBRIS
Your satellite tracking list
Your tracking list is empty





NASA's NSSDC Master Catalog

Two Line Element Set (TLE):
1 33899U 93036DC  17021.15439951  .00000313  00000-0  92881-4 0  9990
2 33899  74.0580  48.4272 0079190 219.9810 207.0813 14.45671988418020
Source of the keplerian elements: AFSPC